Regional Weather Roundup
Issued by NWS

Home | Current Version | Previous Version | Text Only | Print | Product List | Glossary Off
Versions: 1 2 3 4 5 6 7 8 9 10 11 12 13 14 15 16 17 18 19 20 21 22 23 24 25 26 27 28 29 30 31 32 33 34 35 36 37 38 39 40 41 42 43 44 45 46 47 48 49 50

498
ASUS43 KFSD 280202
RWRSD

WEATHER ROUNDUP FOR SOUTH DAKOTA
NATIONAL WEATHER SERVICE SIOUX FALLS SD
900 PM CDT TUE JUN 27 2017

NOTE: "FAIR" INDICATES FEW OR NO CLOUDS BELOW 12,000 FEET WITH NO
SIGNIFICANT WEATHER AND/OR OBSTRUCTIONS TO VISIBILITY.


SDZ001>005-009-010-012>017-280300-
NORTHWEST AND NORTH CENTRAL SOUTH DAKOTA

CITY           SKY/WX    TMP DP  RH WIND       PRES   REMARKS
BUFFALO          N/A     81  47  30 NW22G29   29.58R
FAITH            N/A     83  48  29 NW15      29.58R
MOBRIDGE       CLOUDY    82  60  47 SE17      29.46R
$$

SDZ012>016-024>037-041>051-057-063-072>074-280300-
SOUTHWEST AND SOUTH CENTRAL SOUTH DAKOTA

CITY           SKY/WX    TMP DP  RH WIND       PRES   REMARKS
RAPID CTY ARPT CLOUDY    65  56  72 W12       29.69R
PIERRE         CLOUDY    76  53  44 SW37G49   29.58R
CUSTER         CLOUDY    63  44  50 NW3       29.85R
PHILIP         TSTM      63  32  31 SW13      29.69R
PINE RIDGE     CLOUDY    64  60  87 SW3       29.75R
SPEARFISH      TSTM      61  55  82 W16G25    29.82R
WINNER         FAIR      84  62  47 SW16G26   29.63R
$$

SDZ004>011-016>023-039-040-280300-
NORTHEAST SOUTH DAKOTA

CITY           SKY/WX    TMP DP  RH WIND       PRES   REMARKS
ABERDEEN       PTCLDY    77  57  50 SE23G31   29.57F
WATERTOWN      PTCLDY    72  54  53 S15G23    29.69S
BROOKINGS      PTCLDY    74  58  57 S16G25    29.71R
SISSETON         N/A     74  49  41 SE14      29.64F
$$

SDZ017-020-022-023-036>040-048>070-280300-
SOUTHEAST SOUTH DAKOTA

CITY           SKY/WX    TMP DP  RH WIND       PRES   REMARKS
SIOUX FALLS    CLOUDY    76  62  62 S18G28    29.69S
HURON          CLOUDY    79  62  56 SE16      29.62R
MITCHELL       CLOUDY    81  64  56 S17G28    29.65R
YANKTON        PTCLDY    78  65  63 SE20G29   29.66F
$$

ABBREVIATIONS USED IN REMARKS
   TC - TEMPERATURE IN CELSIUS
  WCI - WIND CHILL INDEX
   HX - HEAT INDEX
  VSB - VISIBILITY





USA.gov is the U.S. government's official web portal to all federal, state and local government web resources and services.